Zurück zum Katalog

STARLINK-6177

AktivKommunikationVLEO
NORAD 56880·PAYLOAD·🇺🇸 United States

Gestartet Jun 12, 2023 von Cape Canaveral Space Force Station

Loading…

Nächste Überflüge (nächste 24 Stunden)

TLE

AktuellSource: CelesTrak SupGP

Epoche: Sep 14, 2026, 21:59 UTC

1 56880C 23083E   26257.91645833  .00018662  00000+0  67605-3 0  2570
2 56880  43.0026  96.5296 0001353 274.6046 329.2268 15.27564555    10

Verfolge STARLINK-6177 in Echtzeit mit AllMySat

Download on the App Store